TimePDT,TemperatureF,Dew PointF,Humidity,Sea Level PressureIn,VisibilityMPH,Wind Direction,Wind SpeedMPH,Gust SpeedMPH,PrecipitationIn,Events,Conditions,WindDirDegrees,DateUTC
12:55 AM,48.0,44.1,86,29.90,10.0,SSW,3.5,-,N/A,,Overcast,200,2013-05-07 07:55:00
1:55 AM,46.9,45.0,93,29.90,10.0,West,3.5,-,N/A,,Overcast,260,2013-05-07 08:55:00
3:55 AM,44.1,43.0,96,29.89,9.0,Calm,Calm,-,N/A,,Overcast,0,2013-05-07 10:55:00
4:55 AM,46.0,45.0,96,29.88,9.0,Calm,Calm,-,N/A,,Overcast,0,2013-05-07 11:55:00
5:55 AM,46.9,44.1,90,29.89,10.0,WNW,4.6,-,0.01,Rain,Light Rain,290,2013-05-07 12:55:00
6:16 AM,46.4,44.6,93,29.96,10.0,Calm,Calm,-,0.00,Rain,Light Rain,0,2013-05-07 13:16:00
6:55 AM,46.9,45.0,93,29.92,6.0,SW,4.6,-,0.04,,Overcast,230,2013-05-07 13:55:00
7:41 AM,46.4,44.6,93,29.96,10.0,WSW,6.9,-,0.01,,Overcast,250,2013-05-07 14:41:00
7:55 AM,48.0,45.0,89,29.92,10.0,West,6.9,-,0.01,,Overcast,270,2013-05-07 14:55:00
8:55 AM,48.9,45.0,86,29.94,10.0,WNW,9.2,-,N/A,,Overcast,290,2013-05-07 15:55:00
9:55 AM,50.0,45.0,83,29.95,10.0,West,5.8,-,N/A,,Overcast,270,2013-05-07 16:55:00
10:55 AM,51.1,46.0,83,29.95,10.0,West,9.2,-,N/A,,Overcast,260,2013-05-07 17:55:00
11:55 AM,53.1,46.9,80,29.94,10.0,WSW,12.7,-,N/A,,Overcast,250,2013-05-07 18:55:00
12:27 PM,55.4,46.4,72,29.98,10.0,WNW,12.7,-,N/A,,Overcast,290,2013-05-07 19:27:00
12:55 PM,55.0,48.0,77,29.91,10.0,West,11.5,-,N/A,,Overcast,260,2013-05-07 19:55:00
1:55 PM,55.0,46.9,74,29.91,10.0,West,13.8,-,N/A,,Overcast,260,2013-05-07 20:55:00
2:55 PM,53.1,46.0,77,29.91,10.0,WSW,12.7,-,0.00,,Overcast,240,2013-05-07 21:55:00
3:04 PM,53.6,44.6,72,29.96,10.0,SW,15.0,-,N/A,Thunderstorm,Overcast,230,2013-05-07 22:04:00
3:34 PM,51.8,46.4,82,30.01,2.5,East,6.9,-,0.02,Rain-Thunderstorm,Thunderstorms and Rain,80,2013-05-07 22:34:00
3:44 PM,48.2,46.4,93,29.99,1.8,South,8.1,-,0.11,Rain-Thunderstorm,Thunderstorms and Rain,190,2013-05-07 22:44:00
3:49 PM,48.2,46.4,93,30.00,3.0,SSW,8.1,-,0.11,Rain-Thunderstorm,Light Thunderstorms and Rain,210,2013-05-07 22:49:00
3:55 PM,50.0,48.0,93,29.96,7.0,SW,8.1,-,0.12,Rain-Thunderstorm,Light Thunderstorms and Rain,230,2013-05-07 22:55:00
4:09 PM,50.0,48.2,94,30.00,10.0,WSW,6.9,-,0.00,Thunderstorm,Mostly Cloudy,240,2013-05-07 23:09:00
4:27 PM,51.8,48.2,88,29.98,10.0,SW,10.4,-,0.00,,Scattered Clouds,220,2013-05-07 23:27:00
4:40 PM,51.8,48.2,88,29.98,10.0,SW,9.2,-,0.00,,Mostly Cloudy,220,2013-05-07 23:40:00
4:55 PM,51.1,48.0,89,29.94,10.0,SSW,6.9,-,0.00,,Mostly Cloudy,210,2013-05-07 23:55:00
5:06 PM,51.8,46.4,82,29.99,10.0,SW,5.8,-,N/A,Thunderstorm,Overcast,230,2013-05-08 00:06:00
5:21 PM,51.8,48.2,88,29.99,10.0,Calm,Calm,-,0.00,Rain,Light Rain,0,2013-05-08 00:21:00
5:55 PM,51.1,48.0,89,29.96,10.0,Calm,Calm,-,0.00,,Mostly Cloudy,0,2013-05-08 00:55:00
6:28 PM,50.0,48.2,94,30.01,10.0,Calm,Calm,-,0.00,,Overcast,0,2013-05-08 01:28:00
6:55 PM,50.0,48.0,93,29.97,10.0,SW,10.4,-,0.01,Rain,Light Rain,220,2013-05-08 01:55:00
7:28 PM,50.0,48.2,94,30.00,10.0,Calm,Calm,-,0.00,,Overcast,0,2013-05-08 02:28:00
7:44 PM,50.0,46.4,87,30.01,10.0,Calm,Calm,-,0.00,Thunderstorm,Overcast,0,2013-05-08 02:44:00
7:53 PM,50.0,46.4,87,30.01,10.0,Calm,Calm,-,0.00,,Overcast,0,2013-05-08 02:53:00
7:55 PM,50.0,46.9,89,29.98,10.0,Calm,Calm,-,0.00,,Overcast,0,2013-05-08 02:55:00
8:55 PM,50.0,48.0,93,29.98,10.0,Calm,Calm,-,N/A,,Overcast,0,2013-05-08 03:55:00
9:55 PM,50.0,46.9,89,30.00,10.0,SW,3.5,-,N/A,,Overcast,220,2013-05-08 04:55:00
10:55 PM,48.9,48.0,97,30.00,10.0,West,3.5,-,N/A,,Overcast,260,2013-05-08 05:55:00
11:55 PM,50.0,48.0,93,29.99,10.0,WSW,4.6,-,N/A,,Overcast,240,2013-05-08 06:55:00